Weather History for Worland, WY

Change the Weather History Date:

Friday, July 12, 2013

  Actual Average Record
Temperature  
Mean Temperature 76 °F 72 °F  
Max Temperature 89 °F 89 °F 101 °F (1969)
Min Temperature 63 °F 55 °F 40 °F (2008)
Degree Days  
Heating Degree Days 0 0  
Month to date heating degree days 0 10  
Since 1 June heating degree days 45 103  
Since 1 July heating degree days 0 10  
Cooling Degree Days 11 7  
Month to date cooling degree days 137 77  
Year to date cooling degree days 287 173  
Since 1 June cooling degree days 270 161  
Growing Degree Days 26 (Base 50)    
Moisture  
Dew Point 51 °F    
Average Humidity 55    
Maximum Humidity 93    
Minimum Humidity 17    
Precipitation  
Precipitation 0.05 in 0.03 in 0.44 in (1992)
Month to date precipitation 0.17 0.27  
Year to date precipitation 2.95 4.58  
Sea Level Pressure  
Sea Level Pressure 29.81 in    
Wind  
Wind Speed 6 mph (SSE)    
Max Wind Speed 15 mph    
Max Gust Speed 21 mph    
Visibility 10 miles    
Events Rain    
T = Trace of Precipitation, MM = Missing Value Source: NWS Daily Summary

Daily Weather History Graph

Daily Weather History Graph

Search for Another Location

Airport:

Trip Planner

Search our weather history database for the weather conditions in past years. The results will help you decide how hot, cold, wet, or windy it might be!

Date:

Astronomy

Jul. 12, 2013 Rise Set
Actual Time 5:40 AM MDT 8:53 PM MDT
Civil Twilight 5:05 AM MDT 9:28 PM MDT
Nautical Twilight 4:19 AM MDT 10:14 PM MDT
Astronomical Twilight 3:24 AM MDT 11:09 PM MDT
Moon 10:11 AM MDT (7/12) 10:53 PM MDT (7/12)
Length of Visible Light 16h 23m
Length of Day
15h 13m
Waxing Crescent, 18% of the Moon is Illuminated
Jul 12
Waxing Crescent
Jul 15
First Quarter
Jul 22
Full
Jul 29
Last Quarter
Aug 6
New

Hourly Weather History & Observations

Time (MDT) Temp. Heat Index Dew Point Humidity Pressure Visibility Wind Dir Wind Speed Gust Speed Precip Events Conditions
12:53 AM 77.0 °F - 46.0 °F 33% 29.74 in 10.0 mi NNW 13.8 mph 26.5 mph N/A   Overcast
1:53 AM 73.9 °F - 48.0 °F 40% 29.76 in 10.0 mi West 4.6 mph - 0.00 in   Overcast
2:53 AM 69.1 °F - 55.0 °F 61% 29.81 in 10.0 mi NNE 4.6 mph - 0.02 in Rain Light Rain
3:53 AM 66.0 °F - 57.0 °F 73% 29.83 in 10.0 mi NNE 3.5 mph - 0.03 in Rain Light Rain
4:53 AM 64.0 °F - 57.9 °F 80% 29.81 in 10.0 mi NNE 5.8 mph - 0.00 in   Partly Cloudy
5:53 AM 63.0 °F - 61.0 °F 93% 29.84 in 10.0 mi Calm Calm - N/A   Overcast
6:53 AM 64.0 °F - 61.0 °F 90% 29.84 in 10.0 mi SW 8.1 mph - N/A   Overcast
7:53 AM 66.0 °F - 60.1 °F 81% 29.84 in 10.0 mi SW 3.5 mph - N/A   Overcast
8:53 AM 66.0 °F - 60.1 °F 81% 29.86 in 10.0 mi SW 5.8 mph - N/A   Overcast
9:53 AM 69.1 °F - 59.0 °F 70% 29.86 in 10.0 mi SE 4.6 mph - N/A   Overcast
10:53 AM 69.1 °F - 59.0 °F 70% 29.88 in 10.0 mi Calm Calm - N/A   Overcast
11:53 AM 72.0 °F - 55.9 °F 57% 29.87 in 10.0 mi West 3.5 mph - N/A   Partly Cloudy
12:53 PM 75.0 °F - 57.0 °F 53% 29.86 in 10.0 mi North 3.5 mph - N/A   Clear
1:53 PM 81.0 °F 80.8 °F 55.9 °F 42% 29.83 in 10.0 mi NE 5.8 mph - N/A   Clear
2:53 PM 84.9 °F - 52.0 °F 32% 29.83 in 10.0 mi Variable 3.5 mph - N/A   Clear
3:53 PM 84.0 °F - 46.9 °F 27% 29.82 in 10.0 mi NW 4.6 mph - N/A   Clear
4:53 PM 84.0 °F - 48.9 °F 29% 29.79 in 10.0 mi Variable 4.6 mph - N/A   Clear
5:53 PM 88.0 °F - 37.9 °F 17% 29.76 in 10.0 mi Variable 4.6 mph - N/A   Clear
6:53 PM 89.1 °F - 39.9 °F 18% 29.75 in 10.0 mi ESE 12.7 mph - N/A   Clear
7:53 PM 87.1 °F - 37.0 °F 17% 29.75 in 10.0 mi ESE 11.5 mph - N/A   Clear
8:53 PM 79.0 °F - 37.9 °F 23% 29.77 in 10.0 mi SE 9.2 mph - N/A   Clear
9:53 PM 78.1 °F - 41.0 °F 27% 29.78 in 10.0 mi SE 10.4 mph - N/A   Clear
10:53 PM 75.0 °F - 50.0 °F 41% 29.80 in 10.0 mi SSE 10.4 mph - N/A   Clear
11:53 PM 71.1 °F - 50.0 °F 47% 29.83 in 10.0 mi SW 12.7 mph 19.6 mph N/A   Clear